Terminal Aerodrome Forecast
Issued by NWS San Angelo, TX

Home | Current Version | Previous Version | Text Only | Print | Product List | Glossary On
Versions: 1 2 3 4 5 6 7 8 9 10 11 12 13 14 15 16 17 18 19 20 21 22
000
FTUS44 KSJT 270500
TAFABI
TAF
KABI 270521Z 2706/2806 09010KT P6SM BKN080
     FM270700 15011KT P6SM SCT080
     FM271100 17011KT P6SM BKN015
     FM271700 19010KT P6SM SCT040=

USA.gov is the U.S. government's official web portal to all federal, state and local government web resources and services.